{"data":{"norad_id":63006,"intl_designator":"2025-032B","name":"STARLINK-11553 [DTC]","alt_names":[],"object_type":"PAYLOAD","status":"ACTIVE","operator":null,"country":"US","launch_date":"2025-02-15","launch_site_code":"AFETR","launch_vehicle":null,"mission":null,"orbit_class":"UNKNOWN","rcs_meters":null,"size_class":null,"mass_kg":null,"dimensions":null,"purposes":["comms"],"wikipedia_slug":null,"has_3d_model":false,"image_url":null,"decayed_at":null,"tle_current":{"epoch":"2026-09-20T21:59:36.869280Z","epoch_age_seconds":129070,"freshness":"FRESH","line1":"1 63006U 25032B   26263.91639895  .00136456  00000+0  10494-2 0  9990","line2":"2 63006  42.9992  98.9594 0000860 275.8560  84.2210 15.70844503 92918","mean_motion":15.70844503,"eccentricity":8.6e-5,"inclination_deg":42.9992,"raan_deg":98.9594,"arg_perigee_deg":275.856,"mean_anomaly_deg":84.221,"bstar":0.0010494,"rev_number":9291,"period_min":91.670435695569,"perigee_km":355.90301393212,"apogee_km":357.061368433,"semimajor_km":6734.6191911826,"source":"CELESTRAK","updated_at":"2026-09-22T09:00:49.721278Z"}}}